SCP
0 0 0 0 0 0 0 0 0 0 0 0 0 0 0 -0 0 0 -0 -0 -0 -0 0 0 -0 0 0 0 -0 -0 -0 -0 0 0 -0 -0 0 0 0 0 0 0 0 0
0 0 0 0 0 0 0 0 0 0 0 0 0 0 0 -0 -0 -0 -0 -0 -0 0 0 0 -0 0 0 0 0 -0 -0 -0 -0 0 0 0 -0 -0 0 0 0 0 0 0
0 0 0 0 0 0 0 0 0 0 0 0 0 0 0 0 0 -0 -0 0 -0 -0 -0 0 -0 -0 -0 0 0 0 0 -0 -0 -0 -0 0 0 0 0 -0 0 0 0 0
0 0 0 0 0 0 0 0 0 0 0 0 0 0 0 0 0 0 -0 0 0 -0 -0 -0 -0 -0 -0 0 0 0 0 0 0 0 -0 -0 -0 -0 -0 -0 0 0 0 -0
0 0 0 0 0 0 0 0 0 0 0 0 0 0 0 0 0 0 0 0 0 -0 -0 0 -0 -0 0 0 0 0 0 0 0 0 0 0 -0 -0 -0 -0 -0 0 0 0
0 0 0 0 0 0 0 0 0 0 0 0 0 0 0 0 0 0 0 0 0 0 0 -0 0 -0 0 0 0 0 0 0 0 0 0 0 0 0 0 -0 -0 -0 -0 -0
0 0 0 0 0 0 0 0 0 0 0 0 0 0 0 0 0 0 0 0 0 0 0 0 0 0 -0 -0 0 0 0 0 0 0 0 0 0 0 0 0 -0 -0 -0 -0
0 0 0 0 0 0 0 0 0 0 0 0 0 0 0 0 0 0 0 0 0 0 0 0 0 0 0 0 0 0 0 0 0 0 0 0 0 0 0 0 -0 -0 -0 -0
0 0 0 0 0 0 0 0 0 0 0 0 0 0 0 0 0 0 0 0 0 0 0 0 0 0 0 0 0 0 0 0 0 0 0 0 0 0 0 0 0 -0 -0 -0
0 0 0 0 0 0 0 0 0 0 0 0 0 0 0 0 0 0 0 0 0 0 0 0 0 0 0 0 0 0 0 0 1 0 0 0 0 0 0 0 0 0 -0 -0
0 0 0 0 0 0 0 0 0 0 0 0 0 0 0 0 0 0 0 0 0 0 0 0 0 0 0 0 0 0 0 0 0 0 0 0 0 0 0 0 0 0 0 0
0 0 0 0 0 0 0 0 0 0 0 0 0 0 0 0 0 0 0 0 0 0 0 0 0 0 0 0 0 0 0 0 0 0 1 0 0 0 0 0 0 0 0 0
0 0 0 0 0 0 0 0 0 0 0 0 0 0 0 0 0 0 0 0 0 0 0 0 0 0 0 0 0 0 0 0 0 0 0 0 0 0 0 0 0 0 0 0
0 0 0 0 0 0 0 0 0 0 0 0 0 0 0 0 0 0 0 0 0 0 0 0 0 0 0 0 0 0 0 0 0 0 0 0 0 0 0 0 0 0 0 0
0 0 0 0 0 0 0 0 0 0 0 0 0 0 0 0 0 0 0 0 0 0 0 0 0 0 0 0 0 0 0 0 0 0 0 0 0 0 0 0 0 0 0 0
0 0 0 0 0 0 0 0 0 0 0 0 0 0 0 0 0 0 0 0 0 0 0 0 0 0 0 0 0 0 0 0 0 0 0 0 0 0 0 0 0 0 0 0
0 0 0 0 0 0 0 0 0 0 0 0 0 0 0 0 0 0 0 0 0 0 0 0 0 0 0 0 0 0 0 0 0 0 0 1 0 0 0 0 0 0 0 0
0 0 0 0 0 0 0 0 0 0 0 0 0 0 0 0 0 0 0 0 0 0 0 0 0 0 0 0 0 0 0 0 0 0 0 0 0 1 1 0 0 0 0 0
0 0 0 0 0 0 0 0 0 0 0 0 0 0 0 0 0 0 0 0 0 0 0 0 0 0 0 0 0 0 0 0 0 0 0 0 0 0 0 1 1 1 0 0
0 0 0 0 0 0 0 0 0 0 0 0 0 0 0 0 0 0 0 0 0 0 0 0 0 0 0 0 0 0 0 0 0 0 0 0 0 0 0 0 0 1 1 0
0 0 0 0 0 0 0 0 0 0 0 0 0 0 0 0 0 0 0 0 0 0 0 0 0 0 0 0 0 0 0 0 0 0 0 0 0 0 0 0 0 0 0 1
0 0 0 0 0 0 0 0 0 0 0 0 0 0 0 0 0 0 0 0 0 0 0 0 0 0 0 0 0 0 0 0 0 0 0 0 0 0 0 0 0 0 0 0
0 0 0 0 0 0 0 0 0 0 0 0 0 0 0 0 0 0 0 0 0 0 -0 -0 0 0 0 0 0 0 0 0 0 0 0 0 0 0 0 0 0 0 0 0
0 0 0 0 0 0 -0 0 0 0 0 0 0 0 0 0 0 0 0 0 0 0 0 0 -0 0 0 0 0 0 0 0 0 0 0 0 0 0 0 0 0 0 0 0
0 0 0 0 0 0 0 0 0 0 0 0 0 0 0 0 0 0 0 0 0 0 0 0 0 0 0 0 0 0 0 0 0 0 0 0 0 0 0 0 0 0 0 0
0 0 0 0 0 0 0 0 0 0 0 0 0 0 0 0 0 0 0 0 0 0 0 0 0 0 0 0 0 0 0 0 0 0 0 0 0 0 0 0 0 0 0 0
Wind_Speed_500mb
18 14 22 22 12 6 14 12 10 5 8 13 12 12 15 26 32 38 48 51 50 51 51 49 48 44 37 43 46 51 51 47 42 34 30 27 22 19 15 12 9 11 16 14
14 20 19 15 11 14 8 10 8 4 5 13 6 6 7 22 27 35 46 47 50 48 46 48 50 48 47 48 51 54 51 48 39 33 25 24 21 16 12 15 11 14 17 16
23 19 21 14 17 16 9 10 9 7 2 2 2 1 7 2 10 21 31 40 44 47 51 47 49 52 55 55 57 55 54 50 41 34 31 28 23 20 17 16 12 13 14 15
18 15 25 18 18 15 18 14 8 6 5 6 5 7 13 13 7 5 18 34 40 48 48 51 52 53 57 62 61 60 56 54 48 40 37 34 29 24 21 16 12 7 10 13
10 21 22 19 14 13 6 10 13 6 7 4 9 4 13 10 15 13 16 21 35 41 47 54 57 59 61 60 63 63 62 58 56 50 44 35 35 25 21 19 16 12 8 7
7 7 4 4 6 19 21 12 9 7 5 11 5 5 11 13 18 22 21 12 28 40 52 50 53 54 65 60 66 68 66 63 60 56 50 45 38 34 29 26 23 20 12 9
8 8 5 11 13 10 14 17 10 13 11 10 5 9 11 13 22 21 28 26 23 27 48 60 58 59 66 71 62 68 72 68 62 60 57 52 43 42 39 33 28 26 22 13
9 12 10 20 7 4 21 20 11 21 17 14 1 15 9 14 23 29 31 34 30 28 41 62 71 68 71 71 75 67 68 71 66 61 60 53 46 40 45 39 33 30 25 18
7 8 3 15 13 7 11 12 3 10 2 18 10 12 8 22 29 39 43 41 43 42 27 50 57 60 63 77 74 76 70 72 73 63 60 58 50 44 44 42 39 35 29 22
5 10 11 9 3 20 6 7 11 4 18 21 9 9 10 25 31 35 46 55 52 51 26 18 33 45 52 59 66 70 71 73 74 72 64 59 54 49 42 44 50 39 36 30
4 3 7 2 14 17 5 5 6 3 5 12 15 9 10 17 20 27 42 48 50 56 50 36 11 21 36 60 66 64 67 68 72 82 78 69 59 55 48 45 52 52 40 39
9 7 9 8 4 8 14 7 3 11 11 4 0 10 8 18 27 31 39 46 51 59 59 47 33 14 8 14 42 61 58 60 66 72 82 80 71 61 58 49 47 50 55 46
3 6 9 5 7 3 6 8 6 2 1 8 13 12 16 25 30 36 36 41 48 56 64 59 48 32 14 11 22 30 39 45 49 63 68 76 81 75 67 59 50 49 51 55
9 7 5 3 9 4 3 4 7 5 7 15 3 27 15 21 22 30 35 38 41 46 57 65 62 54 44 18 6 28 30 38 37 44 53 64 68 75 75 69 63 55 51 55
5 7 9 12 9 2 1 4 2 1 7 5 28 21 17 18 22 23 27 33 37 43 47 51 57 58 57 42 28 5 22 34 39 42 43 51 53 56 61 72 74 68 63 59
4 9 9 5 7 2 2 3 9 6 7 15 29 20 19 19 18 24 27 29 34 37 37 41 45 49 52 54 50 30 20 11 31 40 49 51 53 53 52 55 61 67 70 70
4 12 8 8 6 3 7 8 7 11 7 6 20 15 20 18 19 19 20 24 26 30 34 38 38 42 45 41 45 48 35 16 15 27 35 40 51 56 56 54 54 59 61 65
12 10 2 8 10 9 9 5 6 21 13 14 22 17 14 8 3 5 15 21 23 26 30 33 35 37 36 36 32 33 42 44 19 16 26 34 44 45 51 57 58 61 61 63
3 7 6 8 13 4 9 13 15 12 9 7 13 12 5 6 4 17 5 19 27 27 27 30 31 33 34 35 33 33 26 33 43 33 18 23 43 53 53 51 55 55 57 62
6 4 6 6 8 12 8 15 13 10 12 25 13 5 3 11 8 10 14 28 35 34 36 34 35 36 31 32 35 34 33 24 21 30 39 37 22 32 48 53 52 43 50 58
5 2 14 11 9 4 12 23 19 14 8 27 15 8 4 4 7 22 28 30 32 38 41 43 46 43 41 36 35 38 35 35 27 18 21 32 41 33 34 44 47 40 36 45
13 12 7 5 10 14 33 19 13 16 24 21 14 12 8 7 11 18 24 28 34 40 46 45 49 53 51 50 42 40 40 39 37 35 18 21 27 36 36 29 43 43 42 48
9 7 6 13 5 5 28 5 18 18 21 20 19 13 7 7 15 21 27 32 35 36 39 43 49 56 55 53 51 51 45 42 45 41 42 28 18 24 45 32 24 41 52 50
11 9 5 5 11 12 22 13 10 11 9 16 15 12 10 14 19 28 32 37 41 41 44 46 48 53 61 55 57 59 60 47 47 50 44 47 36 26 35 51 31 33 40 58
3 20 12 8 10 4 19 28 21 20 16 20 17 16 18 21 27 31 38 40 43 49 51 52 50 51 60 62 63 61 60 55 51 50 52 47 49 48 34 46 45 35 39 43
21 13 11 10 18 14 7 15 21 26 24 24 20 21 24 25 30 35 41 43 47 52 56 55 55 58 59 61 63 61 59 53 52 48 48 48 50 52 51 44 51 44 46 43
Wind_Direction_500mb
158 182 191 179 188 135 130 129 109 74 162 204 240 256 206 178 188 194 194 194 193 193 196 199 201 203 203 197 189 184 183 180 181 188 190 195 196 190 200 190 163 148 163 153
155 199 186 192 187 153 145 144 118 54 49 223 278 294 335 189 194 192 190 194 197 195 194 199 201 208 206 201 194 192 188 190 193 199 195 196 193 186 183 181 170 160 169 154
179 178 165 172 167 174 153 193 163 126 358 157 230 88 355 109 189 188 191 197 199 197 197 199 203 211 214 211 207 203 201 200 200 201 193 191 193 193 183 179 168 164 165 158
193 155 167 178 178 191 202 199 182 169 222 162 296 143 52 341 232 238 190 203 204 206 204 202 205 211 216 216 216 214 213 213 211 211 204 200 208 202 191 184 180 173 157 167
144 162 171 191 196 179 205 169 193 188 185 224 175 217 10 55 57 345 231 225 218 217 214 210 209 213 218 220 223 222 221 222 222 220 220 214 214 217 206 193 194 200 178 185
81 68 66 185 151 189 147 102 82 99 179 201 119 268 39 22 351 346 344 326 232 219 217 217 217 218 223 228 229 227 227 227 228 226 227 228 226 225 219 211 203 206 209 209
106 53 56 26 149 144 191 176 151 179 191 186 98 100 49 24 11 358 345 336 310 253 225 217 216 215 225 228 230 229 230 230 230 229 229 232 233 233 236 233 222 210 213 219
153 157 20 358 23 147 183 203 201 184 189 160 181 141 81 50 25 17 10 351 338 295 242 222 217 217 225 229 232 234 229 229 230 229 230 229 235 238 235 237 234 222 214 217
137 96 31 48 32 314 147 197 22 108 75 185 127 102 182 36 25 23 16 11 7 352 250 219 221 218 218 229 231 233 234 231 231 230 230 231 232 236 235 234 227 228 223 221
103 126 22 6 313 48 16 95 171 202 167 177 126 124 64 14 14 16 15 11 14 21 39 201 220 221 220 225 232 235 237 239 237 232 231 233 234 237 240 237 230 232 227 224
35 332 57 19 39 19 17 108 58 95 333 183 161 123 22 50 28 28 24 17 20 32 42 52 85 223 225 231 237 237 238 242 241 237 235 233 235 237 239 242 236 235 233 228
21 74 64 88 53 347 37 56 359 231 178 63 19 112 47 67 44 35 39 31 30 44 49 58 64 118 166 204 236 239 244 244 245 241 239 238 238 238 240 242 240 238 238 236
34 38 127 161 212 161 48 33 46 60 283 181 195 134 90 69 45 34 43 37 35 39 53 56 59 62 63 212 216 222 235 239 242 250 247 244 243 240 240 241 244 241 240 238
86 72 337 300 69 46 180 28 29 339 225 151 69 138 95 66 52 34 36 42 42 40 42 52 50 48 52 57 279 240 234 236 242 242 250 251 248 246 245 245 244 246 244 243
53 98 93 75 72 3 335 322 349 86 94 300 145 117 98 87 79 59 45 42 39 39 37 35 45 45 46 41 39 28 247 234 238 242 241 247 251 252 251 248 248 248 248 247
22 126 137 101 10 343 180 105 138 134 92 92 126 105 120 109 92 73 59 46 36 30 25 23 19 35 39 41 36 22 21 260 245 246 244 245 247 247 247 247 248 251 250 250
84 143 176 152 6 185 227 171 134 110 79 149 169 112 143 99 75 56 57 52 35 21 15 12 8 7 14 25 36 33 25 353 269 270 258 252 251 251 251 249 247 247 245 247
139 123 94 137 157 218 74 76 155 112 91 104 116 117 108 98 104 109 56 40 23 7 1 360 357 356 355 355 10 35 35 26 350 296 289 268 249 248 251 253 251 249 247 246
306 149 131 191 206 25 185 185 166 182 172 169 150 139 121 344 276 176 61 4 347 340 337 335 338 340 343 342 333 347 17 40 32 19 320 269 251 250 246 246 251 255 252 247
85 71 227 174 216 218 103 156 147 156 226 188 186 162 21 352 247 115 338 320 317 319 319 318 318 321 324 329 328 319 329 354 24 20 14 4 321 271 255 252 254 261 264 261
152 92 214 201 239 244 155 151 150 197 122 160 166 177 204 264 288 300 315 318 316 314 311 305 303 305 305 308 316 315 311 311 327 344 348 4 4 340 282 252 245 244 237 245
180 177 193 196 226 244 155 140 202 115 137 164 179 188 206 252 299 316 325 326 325 319 312 307 300 295 293 295 296 300 302 307 296 307 319 330 353 339 335 300 255 248 247 248
211 217 193 212 234 75 175 95 139 151 162 184 187 191 204 278 307 315 319 322 323 322 319 314 306 294 286 288 289 286 291 296 299 285 292 298 297 311 323 326 336 254 257 260
210 189 237 215 190 206 191 192 183 187 185 187 186 200 257 281 300 307 310 312 316 317 316 314 308 300 288 285 280 280 284 285 286 293 280 288 293 292 291 310 324 323 291 256
168 163 188 248 249 275 239 229 225 223 229 218 225 253 272 285 297 305 306 306 308 310 311 309 302 298 293 287 281 277 277 281 277 280 285 282 284 290 291 293 305 308 303 277
187 177 183 213 204 186 166 198 213 227 237 228 244 262 276 281 291 300 300 300 304 309 309 305 300 298 294 291 283 278 272 273 275 273 278 281 283 286 287 286 286 289 298 295
Wind_Speed_850mb
18 14 22 22 12 6 14 12 10 5 8 13 12 12 15 26 32 38 48 51 50 51 51 49 48 44 37 43 46 51 51 47 42 34 30 27 22 19 15 12 9 11 16 14
14 20 19 15 11 14 8 10 8 4 5 13 6 6 7 22 27 35 46 47 50 48 46 48 50 48 47 48 51 54 51 48 39 33 25 24 21 16 12 15 11 14 17 16
23 19 21 14 17 16 9 10 9 7 2 2 2 1 7 2 10 21 31 40 44 47 51 47 49 52 55 55 57 55 54 50 41 34 31 28 23 20 17 16 12 13 14 15
18 15 25 18 18 15 18 14 8 6 5 6 5 7 13 13 7 5 18 34 40 48 48 51 52 53 57 62 61 60 56 54 48 40 37 34 29 24 21 16 12 7 10 13
10 21 22 19 14 13 6 10 13 6 7 4 9 4 13 10 15 13 16 21 35 41 47 54 57 59 61 60 63 63 62 58 56 50 44 35 35 25 21 19 16 12 8 7
7 7 4 4 6 19 21 12 9 7 5 11 5 5 11 13 18 22 21 12 28 40 52 50 53 54 65 60 66 68 66 63 60 56 50 45 38 34 29 26 23 20 12 9
8 8 5 11 13 10 14 17 10 13 11 10 5 9 11 13 22 21 28 26 23 27 48 60 58 59 66 71 62 68 72 68 62 60 57 52 43 42 39 33 28 26 22 13
9 12 10 20 7 4 21 20 11 21 17 14 1 15 9 14 23 29 31 34 30 28 41 62 71 68 71 71 75 67 68 71 66 61 60 53 46 40 45 39 33 30 25 18
7 8 3 15 13 7 11 12 3 10 2 18 10 12 8 22 29 39 43 41 43 42 27 50 57 60 63 77 74 76 70 72 73 63 60 58 50 44 44 42 39 35 29 22
5 10 11 9 3 20 6 7 11 4 18 21 9 9 10 25 31 35 46 55 52 51 26 18 33 45 52 59 66 70 71 73 74 72 64 59 54 49 42 44 50 39 36 30
4 3 7 2 14 17 5 5 6 3 5 12 15 9 10 17 20 27 42 48 50 56 50 36 11 21 36 60 66 64 67 68 72 82 78 69 59 55 48 45 52 52 40 39
9 7 9 8 4 8 14 7 3 11 11 4 0 10 8 18 27 31 39 46 51 59 59 47 33 14 8 14 42 61 58 60 66 72 82 80 71 61 58 49 47 50 55 46
3 6 9 5 7 3 6 8 6 2 1 8 13 12 16 25 30 36 36 41 48 56 64 59 48 32 14 11 22 30 39 45 49 63 68 76 81 75 67 59 50 49 51 55
9 7 5 3 9 4 3 4 7 5 7 15 3 27 15 21 22 30 35 38 41 46 57 65 62 54 44 18 6 28 30 38 37 44 53 64 68 75 75 69 63 55 51 55
5 7 9 12 9 2 1 4 2 1 7 5 28 21 17 18 22 23 27 33 37 43 47 51 57 58 57 42 28 5 22 34 39 42 43 51 53 56 61 72 74 68 63 59
4 9 9 5 7 2 2 3 9 6 7 15 29 20 19 19 18 24 27 29 34 37 37 41 45 49 52 54 50 30 20 11 31 40 49 51 53 53 52 55 61 67 70 70
4 12 8 8 6 3 7 8 7 11 7 6 20 15 20 18 19 19 20 24 26 30 34 38 38 42 45 41 45 48 35 16 15 27 35 40 51 56 56 54 54 59 61 65
12 10 2 8 10 9 9 5 6 21 13 14 22 17 14 8 3 5 15 21 23 26 30 33 35 37 36 36 32 33 42 44 19 16 26 34 44 45 51 57 58 61 61 63
3 7 6 8 13 4 9 13 15 12 9 7 13 12 5 6 4 17 5 19 27 27 27 30 31 33 34 35 33 33 26 33 43 33 18 23 43 53 53 51 55 55 57 62
6 4 6 6 8 12 8 15 13 10 12 25 13 5 3 11 8 10 14 28 35 34 36 34 35 36 31 32 35 34 33 24 21 30 39 37 22 32 48 53 52 43 50 58
5 2 14 11 9 4 12 23 19 14 8 27 15 8 4 4 7 22 28 30 32 38 41 43 46 43 41 36 35 38 35 35 27 18 21 32 41 33 34 44 47 40 36 45
13 12 7 5 10 14 33 19 13 16 24 21 14 12 8 7 11 18 24 28 34 40 46 45 49 53 51 50 42 40 40 39 37 35 18 21 27 36 36 29 43 43 42 48
9 7 6 13 5 5 28 5 18 18 21 20 19 13 7 7 15 21 27 32 35 36 39 43 49 56 55 53 51 51 45 42 45 41 42 28 18 24 45 32 24 41 52 50
11 9 5 5 11 12 22 13 10 11 9 16 15 12 10 14 19 28 32 37 41 41 44 46 48 53 61 55 57 59 60 47 47 50 44 47 36 26 35 51 31 33 40 58
3 20 12 8 10 4 19 28 21 20 16 20 17 16 18 21 27 31 38 40 43 49 51 52 50 51 60 62 63 61 60 55 51 50 52 47 49 48 34 46 45 35 39 43
21 13 11 10 18 14 7 15 21 26 24 24 20 21 24 25 30 35 41 43 47 52 56 55 55 58 59 61 63 61 59 53 52 48 48 48 50 52 51 44 51 44 46 43
Wind_Direction_850mb
158 182 191 179 188 135 130 129 109 74 162 204 240 256 206 178 188 194 194 194 193 193 196 199 201 203 203 197 189 184 183 180 181 188 190 195 196 190 200 190 163 148 163 153
155 199 186 192 187 153 145 144 118 54 49 223 278 294 335 189 194 192 190 194 197 195 194 199 201 208 206 201 194 192 188 190 193 199 195 196 193 186 183 181 170 160 169 154
179 178 165 172 167 174 153 193 163 126 358 157 230 88 355 109 189 188 191 197 199 197 197 199 203 211 214 211 207 203 201 200 200 201 193 191 193 193 183 179 168 164 165 158
193 155 167 178 178 191 202 199 182 169 222 162 296 143 52 341 232 238 190 203 204 206 204 202 205 211 216 216 216 214 213 213 211 211 204 200 208 202 191 184 180 173 157 167
144 162 171 191 196 179 205 169 193 188 185 224 175 217 10 55 57 345 231 225 218 217 214 210 209 213 218 220 223 222 221 222 222 220 220 214 214 217 206 193 194 200 178 185
81 68 66 185 151 189 147 102 82 99 179 201 119 268 39 22 351 346 344 326 232 219 217 217 217 218 223 228 229 227 227 227 228 226 227 228 226 225 219 211 203 206 209 209
106 53 56 26 149 144 191 176 151 179 191 186 98 100 49 24 11 358 345 336 310 253 225 217 216 215 225 228 230 229 230 230 230 229 229 232 233 233 236 233 222 210 213 219
153 157 20 358 23 147 183 203 201 184 189 160 181 141 81 50 25 17 10 351 338 295 242 222 217 217 225 229 232 234 229 229 230 229 230 229 235 238 235 237 234 222 214 217
137 96 31 48 32 314 147 197 22 108 75 185 127 102 182 36 25 23 16 11 7 352 250 219 221 218 218 229 231 233 234 231 231 230 230 231 232 236 235 234 227 228 223 221
103 126 22 6 313 48 16 95 171 202 167 177 126 124 64 14 14 16 15 11 14 21 39 201 220 221 220 225 232 235 237 239 237 232 231 233 234 237 240 237 230 232 227 224
35 332 57 19 39 19 17 108 58 95 333 183 161 123 22 50 28 28 24 17 20 32 42 52 85 223 225 231 237 237 238 242 241 237 235 233 235 237 239 242 236 235 233 228
21 74 64 88 53 347 37 56 359 231 178 63 19 112 47 67 44 35 39 31 30 44 49 58 64 118 166 204 236 239 244 244 245 241 239 238 238 238 240 242 240 238 238 236
34 38 127 161 212 161 48 33 46 60 283 181 195 134 90 69 45 34 43 37 35 39 53 56 59 62 63 212 216 222 235 239 242 250 247 244 243 240 240 241 244 241 240 238
86 72 337 300 69 46 180 28 29 339 225 151 69 138 95 66 52 34 36 42 42 40 42 52 50 48 52 57 279 240 234 236 242 242 250 251 248 246 245 245 244 246 244 243
53 98 93 75 72 3 335 322 349 86 94 300 145 117 98 87 79 59 45 42 39 39 37 35 45 45 46 41 39 28 247 234 238 242 241 247 251 252 251 248 248 248 248 247
22 126 137 101 10 343 180 105 138 134 92 92 126 105 120 109 92 73 59 46 36 30 25 23 19 35 39 41 36 22 21 260 245 246 244 245 247 247 247 247 248 251 250 250
84 143 176 152 6 185 227 171 134 110 79 149 169 112 143 99 75 56 57 52 35 21 15 12 8 7 14 25 36 33 25 353 269 270 258 252 251 251 251 249 247 247 245 247
139 123 94 137 157 218 74 76 155 112 91 104 116 117 108 98 104 109 56 40 23 7 1 360 357 356 355 355 10 35 35 26 350 296 289 268 249 248 251 253 251 249 247 246
306 149 131 191 206 25 185 185 166 182 172 169 150 139 121 344 276 176 61 4 347 340 337 335 338 340 343 342 333 347 17 40 32 19 320 269 251 250 246 246 251 255 252 247
85 71 227 174 216 218 103 156 147 156 226 188 186 162 21 352 247 115 338 320 317 319 319 318 318 321 324 329 328 319 329 354 24 20 14 4 321 271 255 252 254 261 264 261
152 92 214 201 239 244 155 151 150 197 122 160 166 177 204 264 288 300 315 318 316 314 311 305 303 305 305 308 316 315 311 311 327 344 348 4 4 340 282 252 245 244 237 245
180 177 193 196 226 244 155 140 202 115 137 164 179 188 206 252 299 316 325 326 325 319 312 307 300 295 293 295 296 300 302 307 296 307 319 330 353 339 335 300 255 248 247 248
211 217 193 212 234 75 175 95 139 151 162 184 187 191 204 278 307 315 319 322 323 322 319 314 306 294 286 288 289 286 291 296 299 285 292 298 297 311 323 326 336 254 257 260
210 189 237 215 190 206 191 192 183 187 185 187 186 200 257 281 300 307 310 312 316 317 316 314 308 300 288 285 280 280 284 285 286 293 280 288 293 292 291 310 324 323 291 256
168 163 188 248 249 275 239 229 225 223 229 218 225 253 272 285 297 305 306 306 308 310 311 309 302 298 293 287 281 277 277 281 277 280 285 282 284 290 291 293 305 308 303 277
187 177 183 213 204 186 166 198 213 227 237 228 244 262 276 281 291 300 300 300 304 309 309 305 300 298 294 291 283 278 272 273 275 273 278 281 283 286 287 286 286 289 298 295